QPF
0.10 0.09 0.08 0.09 0.09 0.09 0.12 0.15 0.16 0.17 0.17 0.17 0.12 0.09 0.08 0.06 0.06 0.05 0.05 0.03 0.02 0.01 0.01 0.01 0.01 0.01 0.01 0.02 0.03 0.03 0.03 0.04 0.05 0.05 0.05 0.06 0.07 0.07
0.10 0.10 0.09 0.08 0.11 0.10 0.12 0.14 0.15 0.19 0.19 0.19 0.15 0.12 0.10 0.09 0.08 0.07 0.06 0.04 0.03 0.02 0.01 0.01 0.01 0.01 0.01 0.01 0.02 0.03 0.04 0.05 0.06 0.06 0.06 0.07 0.07 0.07
0.11 0.10 0.11 0.11 0.12 0.13 0.14 0.15 0.17 0.20 0.21 0.19 0.16 0.16 0.17 0.16 0.11 0.06 0.04 0.03 0.03 0.03 0.02 0.01 0.02 0.01 0.01 0.01 0.01 0.02 0.04 0.06 0.08 0.08 0.07 0.06 0.06 0.05
0.09 0.11 0.13 0.13 0.12 0.10 0.12 0.15 0.17 0.17 0.17 0.16 0.16 0.15 0.13 0.13 0.14 0.10 0.06 0.03 0.02 0.04 0.03 0.03 0.02 0.02 0.01 0.01 0.01 0.02 0.04 0.07 0.10 0.09 0.09 0.07 0.05 0.04
0.08 0.09 0.11 0.11 0.10 0.10 0.10 0.11 0.13 0.13 0.14 0.15 0.13 0.12 0.09 0.08 0.08 0.08 0.06 0.05 0.03 0.03 0.04 0.04 0.03 0.02 0.01 0.01 0.02 0.03 0.04 0.05 0.06 0.06 0.07 0.05 0.03 0.03
0.06 0.08 0.09 0.09 0.10 0.11 0.10 0.10 0.10 0.10 0.11 0.11 0.10 0.10 0.08 0.06 0.06 0.06 0.05 0.05 0.04 0.04 0.06 0.06 0.05 0.03 0.02 0.01 0.01 0.02 0.02 0.02 0.02 0.02 0.03 0.03 0.02 0.02
0.06 0.07 0.07 0.08 0.10 0.10 0.09 0.08 0.08 0.07 0.07 0.08 0.09 0.08 0.06 0.06 0.05 0.05 0.05 0.04 0.05 0.05 0.06 0.07 0.07 0.06 0.05 0.05 0.05 0.04 0.03 0.02 0.01 0.01 0.01 0.01 0.01 0.01
0.06 0.05 0.04 0.06 0.05 0.05 0.05 0.05 0.05 0.06 0.07 0.07 0.06 0.05 0.05 0.04 0.04 0.04 0.04 0.05 0.05 0.06 0.07 0.06 0.05 0.05 0.04 0.03 0.03 0.02 0.02 0.02 0.01 0.02 0.02 0.01 0.01 0.01
0.06 0.06 0.04 0.03 0.03 0.04 0.04 0.03 0.04 0.04 0.05 0.07 0.06 0.06 0.05 0.03 0.03 0.04 0.04 0.04 0.04 0.05 0.05 0.04 0.05 0.04 0.04 0.03 0.02 0.02 0.02 0.01 0.01 0.01 0.02 0.02 0.02 0.02
0.04 0.05 0.05 0.04 0.03 0.03 0.03 0.04 0.04 0.04 0.05 0.07 0.07 0.06 0.05 0.03 0.03 0.03 0.03 0.04 0.04 0.04 0.05 0.05 0.04 0.04 0.03 0.03 0.03 0.03 0.02 0.01 0.01 0.01 0.01 0.01 0.01 0.01
0.02 0.02 0.03 0.03 0.03 0.03 0.04 0.04 0.03 0.04 0.05 0.04 0.04 0.04 0.04 0.03 0.03 0.04 0.04 0.04 0.03 0.03 0.04 0.04 0.04 0.05 0.03 0.03 0.03 0.03 0.03 0.01 0.01 0.01 0.00 0.00 0.00 0.01
0.03 0.02 0.02 0.02 0.03 0.04 0.04 0.05 0.05 0.05 0.05 0.04 0.02 0.02 0.02 0.02 0.01 0.01 0.01 0.02 0.02 0.03 0.03 0.03 0.04 0.04 0.03 0.02 0.02 0.02 0.02 0.02 0.01 0.01 0.00 0.00 0.00 0.00
0.04 0.03 0.02 0.02 0.03 0.03 0.02 0.02 0.03 0.04 0.05 0.04 0.03 0.02 0.01 0.01 0.01 0.01 0.01 0.01 0.02 0.02 0.02 0.03 0.03 0.03 0.02 0.02 0.02 0.02 0.02 0.02 0.01 0.01 0.01 0.00 0.00 0.00
0.03 0.03 0.02 0.02 0.02 0.01 0.01 0.01 0.02 0.02 0.03 0.04 0.03 0.02 0.02 0.02 0.01 0.00 0.00 0.00 0.00 0.01 0.01 0.02 0.02 0.02 0.02 0.01 0.02 0.02 0.02 0.02 0.02 0.02 0.01 0.01 0.01 0.01
0.03 0.02 0.02 0.01 0.01 0.00 0.00 0.01 0.01 0.01 0.02 0.02 0.03 0.02 0.02 0.02 0.01 0.01 0.00 0.00 0.00 0.00 0.00 0.01 0.02 0.02 0.03 0.03 0.04 0.03 0.02 0.02 0.03 0.03 0.03 0.02 0.02 0.01
0.03 0.03 0.02 0.01 0.01 0.00 0.00 0.00 0.00 0.00 0.01 0.02 0.02 0.01 0.01 0.01 0.01 0.01 0.01 0.00 0.00 0.00 0.00 0.00 0.01 0.01 0.02 0.03 0.04 0.02 0.02 0.02 0.03 0.03 0.03 0.03 0.02 0.01
0.02 0.02 0.02 0.01 0.01 0.01 0.01 0.01 0.00 0.00 0.01 0.01 0.01 0.01 0.01 0.02 0.02 0.01 0.01 0.01 0.00 0.00 0.00 0.00 0.00 0.01 0.01 0.01 0.01 0.02 0.02 0.02 0.02 0.03 0.03 0.03 0.02 0.02
0.02 0.02 0.02 0.02 0.01 0.01 0.01 0.01 0.01 0.01 0.01 0.01 0.01 0.02 0.02 0.01 0.01 0.01 0.01 0.01 0.01 0.00 0.00 0.00 0.00 0.00 0.01 0.01 0.01 0.01 0.02 0.02 0.02 0.02 0.03 0.03 0.02 0.02
0.03 0.02 0.01 0.01 0.01 0.01 0.01 0.00 0.00 0.01 0.01 0.01 0.01 0.01 0.02 0.02 0.01 0.01 0.01 0.01 0.01 0.00 0.00 0.00 0.00 0.00 0.01 0.01 0.01 0.01 0.02 0.02 0.02 0.02 0.02 0.03 0.04 0.03
0.03 0.03 0.03 0.03 0.02 0.02 0.01 0.01 0.01 0.01 0.00 0.00 0.01 0.01 0.01 0.02 0.02 0.01 0.01 0.01 0.01 0.01 0.01 0.00 0.00 0.00 0.01 0.01 0.02 0.02 0.02 0.03 0.04 0.03 0.03 0.03 0.03 0.04
0.09 0.08 0.05 0.05 0.04 0.03 0.01 0.01 0.01 0.01 0.01 0.01 0.01 0.01 0.01 0.01 0.01 0.01 0.02 0.02 0.01 0.01 0.01 0.01 0.01 0.01 0.02 0.03 0.04 0.03 0.03 0.04 0.05 0.05 0.06 0.07 0.05 0.04
0.03 0.04 0.06 0.06 0.04 0.02 0.01 0.01 0.01 0.01 0.01 0.01 0.01 0.01 0.01 0.01 0.01 0.01 0.01 0.01 0.01 0.01 0.01 0.01 0.01 0.02 0.04 0.05 0.04 0.04 0.05 0.07 0.07 0.06 0.05 0.05 0.05 0.05
0.01 0.01 0.02 0.02 0.01 0.01 0.01 0.01 0.02 0.02 0.02 0.02 0.01 0.02 0.02 0.02 0.02 0.01 0.01 0.01 0.02 0.02 0.02 0.02 0.02 0.03 0.03 0.05 0.06 0.06 0.06 0.07 0.07 0.07 0.05 0.04 0.03 0.03
MSLP
1012.10 1012.14 1012.28 1012.53 1012.89 1013.36 1013.94 1014.60 1015.32 1016.08 1016.84 1017.57 1018.24 1018.80 1019.25 1019.57 1019.77 1019.87 1019.91 1019.91 1019.92 1019.98 1020.10 1020.30 1020.57 1020.89 1021.25 1021.62 1021.99 1022.35 1022.70 1023.03 1023.36 1023.69 1024.01 1024.32 1024.62 1024.88
1011.36 1011.33 1011.39 1011.58 1011.90 1012.37 1012.98 1013.71 1014.54 1015.44 1016.37 1017.29 1018.15 1018.90 1019.52 1019.98 1020.30 1020.49 1020.58 1020.61 1020.64 1020.69 1020.81 1021.01 1021.28 1021.61 1021.98 1022.37 1022.75 1023.12 1023.46 1023.78 1024.08 1024.36 1024.64 1024.90 1025.15 1025.37
1010.74 1010.64 1010.63 1010.75 1011.02 1011.47 1012.08 1012.85 1013.75 1014.76 1015.84 1016.92 1017.95 1018.88 1019.66 1020.28 1020.72 1021.01 1021.17 1021.26 1021.32 1021.41 1021.54 1021.75 1022.04 1022.39 1022.77 1023.17 1023.55 1023.91 1024.22 1024.51 1024.76 1024.99 1025.21 1025.41 1025.61 1025.78
1010.30 1010.13 1010.06 1010.12 1010.34 1010.74 1011.33 1012.11 1013.05 1014.13 1015.30 1016.50 1017.66 1018.73 1019.65 1020.40 1020.96 1021.36 1021.61 1021.77 1021.90 1022.03 1022.21 1022.45 1022.76 1023.13 1023.53 1023.93 1024.30 1024.64 1024.92 1025.16 1025.36 1025.53 1025.69 1025.84 1025.98 1026.12
1010.05 1009.85 1009.73 1009.73 1009.90 1010.25 1010.80 1011.55 1012.50 1013.60 1014.81 1016.07 1017.31 1018.46 1019.48 1020.33 1021.00 1021.48 1021.83 1022.08 1022.27 1022.47 1022.71 1023.00 1023.35 1023.75 1024.16 1024.57 1024.93 1025.25 1025.50 1025.69 1025.84 1025.96 1026.06 1026.17 1026.27 1026.38
1010.00 1009.78 1009.63 1009.59 1009.71 1010.01 1010.51 1011.22 1012.12 1013.19 1014.38 1015.64 1016.90 1018.09 1019.16 1020.07 1020.80 1021.37 1021.80 1022.12 1022.40 1022.68 1022.98 1023.33 1023.73 1024.16 1024.60 1025.01 1025.38 1025.67 1025.90 1026.06 1026.17 1026.25 1026.32 1026.39 1026.47 1026.56
1010.12 1009.89 1009.73 1009.68 1009.76 1010.01 1010.45 1011.09 1011.92 1012.93 1014.06 1015.27 1016.49 1017.65 1018.72 1019.64 1020.41 1021.02 1021.51 1021.91 1022.27 1022.61 1022.99 1023.40 1023.85 1024.33 1024.79 1025.22 1025.59 1025.88 1026.10 1026.24 1026.33 1026.40 1026.45 1026.50 1026.57 1026.65
1010.35 1010.15 1010.00 1009.94 1010.00 1010.21 1010.60 1011.16 1011.91 1012.81 1013.85 1014.96 1016.10 1017.20 1018.21 1019.11 1019.87 1020.50 1021.03 1021.48 1021.89 1022.30 1022.74 1023.22 1023.72 1024.23 1024.73 1025.18 1025.57 1025.87 1026.09 1026.24 1026.33 1026.39 1026.44 1026.49 1026.56 1026.64
1010.66 1010.49 1010.38 1010.34 1010.39 1010.58 1010.91 1011.40 1012.06 1012.86 1013.77 1014.76 1015.78 1016.78 1017.70 1018.53 1019.26 1019.87 1020.40 1020.88 1021.33 1021.79 1022.28 1022.81 1023.35 1023.91 1024.44 1024.92 1025.33 1025.65 1025.89 1026.05 1026.16 1026.23 1026.29 1026.35 1026.42 1026.50
1010.98 1010.87 1010.81 1010.80 1010.88 1011.05 1011.35 1011.78 1012.35 1013.04 1013.83 1014.69 1015.58 1016.44 1017.26 1018.00 1018.66 1019.23 1019.74 1020.21 1020.68 1021.17 1021.69 1022.25 1022.83 1023.41 1023.97 1024.48 1024.91 1025.26 1025.52 1025.71 1025.84 1025.93 1026.00 1026.07 1026.14 1026.21
1011.28 1011.25 1011.25 1011.30 1011.40 1011.59 1011.87 1012.25 1012.75 1013.34 1014.01 1014.74 1015.49 1016.23 1016.93 1017.56 1018.13 1018.64 1019.11 1019.57 1020.03 1020.52 1021.06 1021.64 1022.24 1022.84 1023.42 1023.95 1024.40 1024.77 1025.05 1025.25 1025.40 1025.50 1025.59 1025.66 1025.73 1025.80
1011.55 1011.60 1011.67 1011.78 1011.92 1012.13 1012.40 1012.75 1013.19 1013.70 1014.28 1014.89 1015.52 1016.13 1016.71 1017.24 1017.73 1018.17 1018.59 1019.01 1019.45 1019.94 1020.48 1021.06 1021.66 1022.27 1022.86 1023.39 1023.85 1024.22 1024.51 1024.72 1024.87 1024.98 1025.06 1025.14 1025.21 1025.27
1011.76 1011.89 1012.04 1012.20 1012.38 1012.61 1012.88 1013.22 1013.61 1014.06 1014.56 1015.08 1015.60 1016.12 1016.60 1017.04 1017.44 1017.82 1018.19 1018.58 1019.00 1019.48 1020.00 1020.57 1021.17 1021.77 1022.34 1022.86 1023.31 1023.67 1023.94 1024.14 1024.28 1024.38 1024.46 1024.53 1024.59 1024.66
1011.91 1012.11 1012.31 1012.51 1012.73 1012.97 1013.24 1013.56 1013.93 1014.33 1014.77 1015.22 1015.68 1016.12 1016.52 1016.90 1017.25 1017.58 1017.92 1018.28 1018.69 1019.15 1019.66 1020.21 1020.79 1021.36 1021.91 1022.39 1022.80 1023.13 1023.37 1023.54 1023.66 1023.73 1023.80 1023.86 1023.92 1024.00
1011.99 1012.23 1012.46 1012.68 1012.91 1013.15 1013.42 1013.73 1014.07 1014.44 1014.84 1015.26 1015.67 1016.06 1016.43 1016.77 1017.10 1017.41 1017.74 1018.09 1018.49 1018.94 1019.44 1019.97 1020.52 1021.06 1021.56 1021.99 1022.35 1022.62 1022.81 1022.93 1023.01 1023.06 1023.11 1023.16 1023.24 1023.34
1011.98 1012.23 1012.47 1012.68 1012.90 1013.12 1013.37 1013.66 1013.98 1014.34 1014.72 1015.12 1015.51 1015.90 1016.26 1016.60 1016.93 1017.26 1017.59 1017.96 1018.36 1018.81 1019.30 1019.81 1020.32 1020.81 1021.25 1021.62 1021.91 1022.12 1022.25 1022.32 1022.36 1022.38 1022.42 1022.48 1022.58 1022.71
1011.89 1012.12 1012.32 1012.50 1012.68 1012.87 1013.08 1013.34 1013.64 1013.99 1014.37 1014.77 1015.18 1015.58 1015.97 1016.34 1016.70 1017.06 1017.43 1017.82 1018.24 1018.70 1019.18 1019.67 1020.14 1020.58 1020.96 1021.26 1021.48 1021.61 1021.68 1021.71 1021.71 1021.72 1021.75 1021.83 1021.96 1022.13
1011.71 1011.89 1012.04 1012.15 1012.27 1012.40 1012.58 1012.80 1013.09 1013.43 1013.82 1014.24 1014.68 1015.11 1015.55 1015.97 1016.37 1016.78 1017.20 1017.62 1018.07 1018.54 1019.01 1019.47 1019.91 1020.29 1020.61 1020.85 1021.00 1021.08 1021.10 1021.09 1021.07 1021.08 1021.13 1021.24 1021.40 1021.62
1011.45 1011.56 1011.63 1011.67 1011.71 1011.79 1011.91 1012.11 1012.38 1012.72 1013.12 1013.57 1014.04 1014.52 1015.01 1015.48 1015.94 1016.40 1016.86 1017.33 1017.80 1018.27 1018.74 1019.18 1019.58 1019.92 1020.18 1020.36 1020.46 1020.50 1020.49 1020.46 1020.45 1020.47 1020.55 1020.69 1020.89 1021.15
1011.10 1011.13 1011.12 1011.08 1011.06 1011.08 1011.17 1011.33 1011.59 1011.94 1012.35 1012.82 1013.33 1013.86 1014.39 1014.91 1015.42 1015.93 1016.43 1016.92 1017.41 1017.88 1018.34 1018.76 1019.12 1019.42 1019.64 1019.79 1019.86 1019.87 1019.86 1019.84 1019.84 1019.89 1020.01 1020.19 1020.43 1020.71
1010.65 1010.61 1010.53 1010.43 1010.36 1010.34 1010.40 1010.55 1010.81 1011.16 1011.59 1012.09 1012.62 1013.18 1013.74 1014.30 1014.84 1015.37 1015.89 1016.39 1016.89 1017.36 1017.80 1018.20 1018.54 1018.81 1019.01 1019.13 1019.19 1019.21 1019.21 1019.22 1019.25 1019.34 1019.50 1019.71 1019.97 1020.26
1010.08 1009.99 1009.87 1009.74 1009.64 1009.60 1009.66 1009.82 1010.08 1010.45 1010.89 1011.41 1011.96 1012.53 1013.11 1013.67 1014.22 1014.76 1015.28 1015.78 1016.26 1016.72 1017.14 1017.52 1017.85 1018.11 1018.30 1018.42 1018.50 1018.53 1018.56 1018.61 1018.68 1018.81 1019.00 1019.23 1019.50 1019.78
1009.37 1009.26 1009.13 1009.00 1008.91 1008.89 1008.97 1009.16 1009.45 1009.84 1010.30 1010.82 1011.38 1011.94 1012.51 1013.07 1013.61 1014.12 1014.63 1015.11 1015.57 1016.01 1016.42 1016.78 1017.10 1017.36 1017.55 1017.69 1017.79 1017.87 1017.93 1018.01 1018.13 1018.29 1018.49 1018.74 1019.00 1019.26
Thickness
5758 5757 5756 5756 5756 5755 5753 5749 5740 5730 5728 5731 5731 5732 5731 5728 5725 5722 5719 5717 5715 5714 5712 5712 5710 5709 5707 5706 5704 5702 5700 5699 5696 5694 5692 5690 5687 5685
5757 5755 5755 5754 5754 5753 5751 5749 5746 5738 5729 5729 5729 5729 5727 5725 5721 5718 5715 5713 5711 5709 5708 5707 5706 5704 5702 5701 5699 5697 5695 5693 5690 5688 5686 5684 5681 5679
5756 5754 5752 5752 5750 5749 5748 5746 5743 5739 5729 5726 5727 5725 5722 5719 5716 5713 5711 5709 5706 5704 5703 5701 5700 5699 5697 5696 5694 5692 5689 5687 5684 5682 5679 5677 5675 5672
5752 5751 5749 5750 5747 5746 5744 5742 5740 5737 5731 5723 5721 5719 5717 5715 5711 5709 5706 5704 5701 5699 5697 5695 5694 5693 5691 5689 5687 5685 5683 5680 5677 5675 5673 5670 5667 5664
5750 5748 5746 5745 5743 5741 5740 5738 5736 5735 5731 5724 5718 5715 5712 5710 5707 5704 5701 5699 5697 5694 5691 5689 5687 5686 5684 5682 5680 5678 5676 5673 5671 5668 5665 5662 5659 5656
5748 5745 5743 5741 5739 5737 5736 5734 5732 5729 5725 5720 5715 5711 5708 5706 5703 5699 5696 5694 5692 5689 5686 5683 5680 5678 5677 5675 5673 5670 5668 5666 5663 5660 5657 5654 5651 5648
5744 5742 5740 5737 5735 5734 5732 5729 5727 5723 5719 5715 5710 5707 5703 5700 5697 5696 5692 5689 5687 5685 5681 5678 5675 5672 5670 5667 5665 5663 5661 5658 5655 5652 5649 5646 5643 5640
5739 5738 5736 5733 5731 5728 5726 5724 5723 5719 5714 5710 5706 5703 5699 5697 5695 5693 5689 5685 5679 5679 5676 5672 5670 5667 5664 5661 5659 5656 5654 5651 5647 5644 5641 5637 5634 5631
5735 5733 5732 5729 5727 5724 5720 5718 5716 5714 5711 5708 5702 5699 5697 5695 5692 5688 5684 5680 5676 5673 5670 5666 5665 5661 5659 5656 5653 5650 5647 5643 5640 5636 5633 5629 5626 5623
5730 5728 5725 5723 5721 5718 5716 5712 5709 5707 5706 5702 5700 5697 5695 5692 5689 5685 5680 5675 5671 5668 5665 5659 5658 5655 5653 5649 5646 5643 5639 5636 5632 5629 5625 5622 5618 5615
5724 5721 5719 5716 5713 5712 5710 5706 5703 5700 5699 5698 5695 5692 5690 5687 5684 5679 5673 5668 5663 5660 5659 5654 5651 5648 5645 5642 5638 5635 5632 5628 5624 5620 5617 5613 5610 5606
5717 5714 5711 5708 5706 5705 5703 5700 5696 5694 5692 5690 5687 5685 5683 5680 5677 5673 5669 5664 5659 5654 5653 5649 5645 5642 5637 5635 5632 5627 5623 5620 5616 5613 5609 5606 5602 5597
5711 5708 5704 5701 5699 5697 5696 5694 5691 5688 5686 5684 5681 5678 5676 5673 5670 5667 5665 5661 5655 5651 5649 5644 5640 5637 5633 5628 5625 5621 5618 5613 5609 5605 5601 5598 5594 5590
5705 5702 5698 5695 5693 5691 5690 5688 5685 5683 5681 5677 5674 5671 5668 5666 5663 5661 5658 5655 5652 5648 5644 5640 5635 5631 5626 5622 5619 5616 5612 5608 5604 5599 5595 5590 5586 5582
5698 5695 5691 5688 5686 5685 5683 5681 5679 5677 5674 5670 5667 5665 5663 5660 5657 5653 5650 5647 5644 5641 5638 5634 5630 5626 5622 5617 5613 5610 5606 5602 5598 5593 5588 5583 5579 5574
5689 5686 5684 5682 5680 5679 5677 5675 5673 5671 5668 5664 5661 5659 5657 5653 5650 5646 5642 5639 5635 5632 5631 5627 5624 5619 5615 5611 5607 5603 5600 5595 5591 5587 5583 5578 5573 5568
5682 5680 5678 5677 5675 5674 5672 5670 5667 5665 5661 5658 5655 5651 5649 5646 5642 5639 5635 5632 5627 5623 5620 5618 5616 5612 5609 5605 5600 5596 5593 5589 5585 5580 5575 5571 5567 5562
5675 5674 5673 5671 5670 5668 5666 5664 5661 5658 5656 5652 5649 5645 5641 5638 5634 5632 5628 5624 5620 5617 5613 5610 5607 5602 5598 5597 5594 5590 5586 5582 5578 5573 5568 5563 5559 5555
5668 5669 5667 5666 5665 5663 5661 5658 5655 5653 5650 5647 5642 5639 5635 5632 5628 5624 5621 5617 5613 5610 5607 5603 5599 5593 5588 5585 5585 5583 5578 5574 5570 5565 5560 5556 5552 5548
5664 5664 5662 5661 5659 5657 5654 5652 5649 5646 5643 5640 5636 5633 5629 5625 5621 5617 5614 5610 5607 5603 5599 5596 5592 5588 5583 5579 5577 5575 5572 5567 5562 5557 5553 5549 5545 5541
5660 5658 5657 5655 5652 5650 5648 5645 5642 5639 5636 5632 5629 5625 5622 5618 5614 5611 5608 5603 5599 5596 5592 5588 5586 5582 5578 5574 5570 5567 5564 5560 5556 5551 5547 5541 5537 5532
5653 5652 5650 5648 5645 5643 5640 5638 5635 5632 5629 5625 5621 5618 5615 5611 5607 5604 5600 5596 5593 5590 5586 5583 5580 5575 5570 5565 5562 5559 5556 5552 5549 5545 5540 5536 5530 5526
5647 5645 5643 5641 5639 5636 5634 5631 5628 5625 5621 5618 5614 5611 5608 5604 5600 5596 5593 5590 5587 5583 5579 5575 5572 5568 5564 5560 5556 5552 5549 5545 5541 5537 5532 5530 5526 5522